Theta_e
359 358 356 349 322 318 314 318 327 323 323 331 331 328 325 326 321 312 333 337 345 350 356 361 365 362 363 363 364 363 363 363 361 362 362 361 362 362 362 361 362 362 361 361 361 361 361 362 362
357 357 354 339 316 307 312 322 322 326 328 331 330 329 323 319 328 328 330 337 351 353 356 359 364 365 363 363 363 363 362 362 361 361 363 363 361 362 362 362 362 362 361 363 363 359 359 361 361
358 357 341 329 318 311 313 324 325 327 332 329 327 329 324 320 327 329 333 336 348 351 355 358 366 367 364 363 363 364 363 363 362 361 362 363 361 360 360 361 362 361 362 362 362 362 361 360 360
353 349 340 321 312 321 318 326 329 327 331 330 325 319 325 331 328 334 336 344 348 351 354 363 365 363 363 365 364 364 363 363 363 363 361 361 362 361 360 361 361 360 360 361 360 360 359 358 358
351 333 320 320 318 321 325 330 330 328 329 326 325 316 320 330 338 340 343 348 349 351 356 360 366 363 363 363 364 364 363 364 363 363 362 361 361 360 360 361 360 360 360 358 358 356 356 357 356
326 325 314 309 314 320 326 330 329 325 324 322 320 320 320 333 337 339 342 344 349 350 353 357 362 362 363 363 364 364 364 362 361 360 361 361 361 360 359 358 360 360 360 357 357 355 355 357 357
327 322 314 315 315 319 325 332 327 324 323 321 327 317 322 330 335 339 342 344 346 350 350 352 351 357 362 363 363 364 362 363 363 362 359 358 358 359 359 360 359 358 358 358 357 356 355 355 357
335 326 321 320 315 317 327 329 331 328 325 331 327 316 318 332 340 342 343 345 345 346 349 349 351 353 353 357 364 362 362 363 362 362 361 359 358 356 358 356 357 358 358 357 356 355 354 355 355
338 319 316 316 317 320 329 327 331 332 327 328 329 324 331 338 340 337 337 340 343 345 346 348 350 350 351 354 358 362 363 362 362 362 362 357 349 348 355 350 354 355 358 357 356 354 354 353 355
325 320 322 327 324 322 326 328 328 325 322 322 326 332 335 336 333 332 335 335 338 340 344 346 348 350 351 356 354 354 354 354 354 355 353 351 347 346 352 350 355 354 354 357 357 354 353 354 351
327 321 328 328 331 328 328 328 332 320 316 321 322 327 331 331 329 330 332 331 337 339 343 344 346 349 350 351 352 352 352 352 352 352 351 352 351 351 351 348 350 351 355 345 347 346 344 343 348
323 328 328 329 331 329 326 331 328 326 319 326 327 330 329 329 327 327 331 333 336 338 341 345 346 345 346 348 352 353 353 351 349 350 351 350 351 350 351 351 350 350 348 346 345 345 344 343 346
326 325 331 332 328 327 331 328 325 321 325 330 330 329 327 327 327 327 330 335 338 337 341 342 344 344 346 346 350 349 352 351 349 351 352 352 351 351 351 349 349 349 348 347 346 345 343 341 344
330 327 328 331 329 327 326 326 324 324 328 327 326 324 325 325 325 325 328 331 337 337 341 340 342 342 345 345 347 349 347 346 349 350 352 353 351 350 349 349 348 348 349 348 346 343 340 340 345
329 324 323 329 328 326 326 321 320 324 325 323 323 323 324 325 326 326 328 333 334 335 336 339 339 342 345 345 344 346 348 350 351 350 352 352 351 349 349 348 347 348 351 348 347 344 345 347 350
323 323 314 327 329 325 323 311 321 323 322 320 321 322 323 325 327 330 332 333 334 335 337 339 344 342 342 345 344 345 350 349 352 352 346 350 353 353 350 350 351 352 351 350 347 348 344 345 346
317 307 313 317 328 322 321 315 322 324 321 319 319 319 322 322 326 330 332 334 335 337 339 339 342 342 342 343 346 346 350 349 352 351 349 351 348 355 353 351 350 353 351 351 349 347 346 344 344
311 312 315 314 323 323 318 318 320 324 323 322 322 321 322 324 326 328 329 332 336 338 339 339 340 342 341 343 346 347 348 349 350 345 343 342 342 349 354 353 353 352 349 349 348 346 347 344 345
318 316 314 318 323 322 320 317 318 321 322 322 322 322 323 325 329 330 331 335 336 338 337 337 336 338 340 344 344 344 344 345 350 350 351 352 349 354 354 352 352 351 350 350 349 345 344 345 347
316 314 314 317 321 321 317 315 321 321 320 322 322 322 324 326 327 330 333 338 336 337 337 335 339 343 343 346 346 348 346 348 350 351 352 354 353 357 355 353 352 350 349 349 348 347 345 346 348
313 313 315 314 320 319 318 314 317 324 323 323 325 325 326 327 326 328 333 335 336 336 336 338 343 344 348 348 348 350 348 346 345 345 348 352 356 356 355 352 352 352 350 347 348 349 345 343 345
306 318 320 317 313 306 316 303 315 320 320 321 323 325 326 329 328 328 334 334 335 337 338 340 341 340 343 345 346 346 343 338 343 345 348 351 353 354 357 353 352 351 352 350 349 351 349 346 341
311 322 319 316 311 309 313 303 307 317 314 319 322 325 327 329 330 328 333 335 337 338 339 341 342 341 341 344 347 345 345 345 344 346 347 342 350 353 357 354 352 351 351 352 350 351 348 348 344
320 315 315 316 308 299 306 304 305 308 313 320 324 326 328 329 330 330 333 335 336 339 342 343 343 343 344 346 347 347 346 344 345 345 344 345 346 342 346 357 354 353 352 352 352 351 350 348 349
314 303 297 297 299 300 308 304 308 316 321 324 326 331 331 331 333 333 334 332 334 337 341 342 342 344 347 346 347 347 349 346 347 345 344 345 339 334 342 353 354 354 351 353 352 352 351 351 348
309 304 299 295 297 301 308 303 309 320 325 329 331 331 333 332 334 336 337 333 334 337 340 342 342 341 346 351 348 349 349 350 352 349 348 346 343 344 349 345 349 351 354 351 353 351 351 350 351
308 301 309 304 305 304 305 309 315 324 326 329 328 328 331 332 332 333 335 336 333 339 340 344 345 344 347 349 353 351 351 351 351 351 347 350 347 350 348 347 343 344 352 351 352 350 348 351 351
309 312 303 303 296 294 302 303 304 312 322 326 326 325 326 330 333 333 336 336 334 336 342 345 348 347 350 351 350 354 356 354 353 352 348 348 350 345 339 337 338 340 346 354 350 351 352 349 349
305 304 302 303 303 298 297 301 315 315 319 325 326 327 327 325 327 331 334 335 337 338 339 346 348 348 348 352 353 352 356 357 354 355 356 353 350 346 341 339 336 335 338 352 353 352 351 351 352
308 305 301 296 299 302 301 304 324 321 320 327 328 328 326 327 330 334 337 334 336 341 338 345 348 348 349 352 353 355 356 358 356 355 355 356 351 344 340 339 337 338 336 346 354 352 355 351 349
Wind_Speed
9 4 1 1 2 4 3 2 8 8 3 1 8 4 9 5 3 4 0 6 8 8 8 11 14 14 13 11 10 12 13 14 12 11 13 12 11 10 11 12 11 12 12 11 11 10 11 12 14
1 1 0 2 5 4 0 5 11 4 6 10 8 9 7 4 5 8 5 5 9 9 7 9 13 14 14 12 12 12 13 13 12 11 11 11 10 10 10 11 11 10 9 10 11 10 10 11 12
2 6 2 2 2 5 4 5 9 11 17 8 7 9 5 3 6 5 4 8 7 6 7 10 14 14 14 14 13 12 13 12 12 13 11 11 10 9 10 8 10 8 9 7 11 10 10 10 10
0 1 2 3 4 1 7 11 18 15 11 8 11 9 4 5 2 6 6 6 7 6 5 12 15 14 13 15 13 12 12 11 12 11 11 10 10 8 9 9 9 6 6 9 9 9 8 8 9
3 1 3 2 3 3 9 21 16 16 10 8 4 4 4 3 7 8 7 10 11 6 6 8 13 14 14 13 14 12 11 11 10 10 10 9 9 6 7 8 8 8 6 7 6 6 5 6 7
4 2 3 1 5 4 4 14 14 12 12 11 10 9 3 6 7 3 5 10 8 9 5 8 13 14 13 14 12 13 10 11 10 9 9 8 9 7 5 4 7 7 7 5 6 4 3 4 6
4 3 2 4 4 9 5 12 10 12 12 7 13 6 4 5 6 4 5 8 7 8 6 5 6 10 14 14 12 12 10 10 9 8 7 5 5 6 6 7 5 6 6 6 4 4 2 2 5
4 1 4 3 4 2 11 10 15 15 6 11 14 8 9 6 7 6 5 9 7 6 6 5 6 6 5 6 13 12 11 10 10 9 8 8 6 2 1 3 4 6 7 7 5 4 2 1 4
3 5 4 4 4 4 12 18 10 10 15 2 6 9 13 11 7 6 4 4 6 6 5 6 6 6 6 4 7 11 12 10 10 9 9 6 4 1 5 6 3 3 6 7 6 3 0 1 1
5 2 4 7 5 7 11 20 15 8 16 13 18 17 15 10 6 6 6 6 5 7 7 6 7 7 5 6 5 3 4 3 3 5 5 4 4 2 4 8 10 10 7 6 5 3 2 3 2
3 3 7 12 10 5 5 12 5 18 9 19 23 19 14 7 7 7 6 6 6 7 8 8 7 8 8 4 3 2 3 3 3 5 5 5 3 3 3 2 4 3 8 2 2 2 3 3 2
7 10 9 12 5 5 6 8 10 7 9 16 17 17 13 12 10 10 11 8 7 6 7 9 8 7 6 3 4 4 4 4 4 4 5 3 3 3 4 3 4 3 3 2 2 2 4 4 2
3 8 10 14 9 15 15 12 12 17 19 17 16 14 13 12 13 9 10 12 8 6 7 7 8 7 5 6 4 4 7 4 4 3 8 6 5 5 4 4 3 3 3 3 3 3 4 5 3
3 4 9 11 14 15 18 15 10 16 19 17 15 12 12 14 15 9 8 9 7 6 8 8 8 7 5 5 6 3 2 4 3 4 6 7 4 3 4 4 3 3 3 3 3 4 4 4 4
2 4 14 6 5 2 14 11 15 21 17 15 12 11 11 13 12 13 11 9 11 6 8 9 8 7 6 7 6 4 4 4 4 4 6 6 4 5 3 3 3 3 4 5 3 4 3 4 3
2 3 1 4 4 3 4 7 15 19 18 13 10 10 12 13 14 11 8 9 7 7 11 8 7 7 6 5 3 3 3 2 2 2 4 5 4 6 6 5 5 5 4 4 3 3 3 4 4
1 4 4 6 8 1 2 8 13 18 15 12 11 9 13 12 12 9 7 7 9 12 11 8 7 8 7 5 3 3 5 4 3 3 2 3 2 3 5 5 4 5 4 3 3 3 3 4 3
4 2 1 3 7 5 4 2 17 17 17 16 15 14 14 12 15 13 9 8 8 13 12 9 7 8 7 4 3 2 1 1 3 4 4 5 2 4 5 4 5 5 5 4 3 4 4 2 2
9 4 5 11 8 2 4 10 15 16 15 15 14 14 13 13 17 13 13 8 14 13 10 9 9 8 4 3 2 1 3 3 3 4 6 5 3 3 5 4 5 5 6 6 5 3 4 3 1
6 13 6 5 4 3 5 3 5 12 17 18 17 15 17 16 15 10 8 12 14 15 11 10 9 8 9 4 3 3 3 2 3 4 4 4 5 4 4 5 5 5 4 6 5 4 2 3 4
9 14 16 10 4 9 5 6 4 6 15 17 16 18 15 18 14 13 13 15 14 14 14 10 9 10 10 7 3 2 1 2 2 1 2 4 4 3 5 6 6 6 5 5 5 5 5 2 2
3 9 25 15 6 4 0 4 5 4 12 14 17 16 15 8 7 10 16 14 16 16 11 9 9 8 8 8 6 6 4 4 4 4 3 4 5 1 5 6 6 6 4 5 4 4 4 4 1
2 27 23 17 7 7 2 1 8 2 5 10 20 15 14 16 12 13 17 17 17 14 13 12 11 9 7 6 7 5 5 3 2 2 3 4 5 4 3 4 5 6 4 5 5 4 5 3 3
17 6 7 5 5 5 4 2 6 5 8 4 10 9 9 17 16 14 15 16 15 11 11 11 11 11 9 8 8 8 7 6 4 3 3 3 2 1 2 4 6 5 5 5 4 5 4 4 3
4 5 5 8 6 4 2 4 9 8 10 6 14 12 6 4 4 6 5 10 13 13 13 10 11 11 10 9 8 8 7 7 7 6 5 5 4 4 6 6 5 5 5 6 6 6 6 6 4
8 8 8 5 4 5 2 2 7 6 8 15 15 14 8 1 4 4 5 3 8 15 15 15 13 11 8 10 10 8 8 5 5 6 5 5 5 5 6 6 5 5 6 7 7 5 5 5 5
5 3 8 9 4 3 2 5 9 4 11 7 11 13 11 8 7 10 16 7 7 14 17 16 14 13 11 12 7 8 7 7 7 7 6 6 6 4 6 6 7 7 6 7 6 4 5 5 5
4 12 6 4 6 3 3 4 7 3 4 5 9 12 14 11 6 7 12 10 4 9 14 14 14 16 15 12 9 7 9 9 7 6 6 6 6 5 4 5 6 6 6 6 6 5 5 5 4
5 1 6 6 6 7 1 7 9 8 6 11 10 9 12 6 9 11 6 1 6 1 6 12 13 14 12 11 10 9 10 10 7 6 6 7 6 7 7 6 6 7 6 6 6 6 6 6 6
7 8 6 6 5 3 4 8 3 5 6 7 9 10 11 9 9 7 4 6 5 7 6 8 9 13 14 13 10 11 9 8 7 7 7 6 7 6 8 7 7 7 8 7 6 6 5 5 5
Wind_Direction
215 206 201 259 69 72 119 82 134 123 117 183 159 145 106 49 28 143 160 157 134 133 135 129 130 121 118 115 107 106 102 93 93 95 95 93 97 93 102 99 106 116 114 110 104 104 106 108 110
229 159 195 282 83 83 151 153 159 156 134 118 82 102 51 75 62 108 101 178 145 143 133 134 132 129 126 121 114 105 98 96 100 104 104 104 106 110 99 114 109 115 114 115 113 107 108 109 112
236 233 295 84 186 149 147 161 123 130 139 142 111 57 72 74 79 139 155 162 148 141 135 143 140 132 133 125 117 111 102 100 102 101 110 109 105 110 117 111 126 131 128 120 114 108 108 114 117
235 289 302 17 167 55 133 150 128 146 129 66 102 73 68 101 115 153 140 161 125 129 133 143 139 136 132 125 121 113 109 106 106 112 109 110 112 116 116 127 132 126 116 109 105 107 104 111 120
348 338 31 319 257 114 130 144 154 150 102 109 91 95 75 50 110 122 121 116 129 125 140 141 139 137 135 131 128 123 126 117 110 111 109 114 115 124 116 122 118 126 122 118 115 115 110 107 121
2 46 46 200 96 97 74 125 107 106 108 117 94 98 128 134 117 144 122 136 133 140 143 151 146 142 141 137 135 133 139 126 122 117 122 129 132 125 121 105 137 141 134 129 118 108 101 125 143
105 26 313 309 116 83 158 138 123 128 122 118 135 94 136 134 142 143 122 139 143 139 144 156 141 150 148 145 145 144 152 140 137 135 131 143 132 136 153 154 160 149 153 149 140 123 94 101 158
98 128 349 264 121 36 125 110 131 128 88 111 140 157 169 178 141 112 80 136 135 142 145 167 148 136 146 161 159 165 166 164 161 157 165 166 105 34 181 207 190 174 172 159 162 138 115 44 113
64 32 325 294 130 164 112 111 99 92 129 38 196 136 140 137 130 128 130 104 137 150 170 169 151 157 177 171 185 180 183 192 182 176 172 122 133 180 275 299 272 205 223 178 175 159 157 303 129
62 50 286 279 143 151 131 130 131 105 95 96 97 104 127 137 138 149 143 135 161 171 185 191 167 179 184 181 194 196 228 209 195 192 165 171 152 203 234 236 274 242 242 180 183 186 251 325 350
76 277 300 347 37 133 122 119 95 120 125 150 143 143 142 142 181 176 138 160 199 177 184 178 177 185 191 191 178 193 226 211 225 178 169 180 157 205 244 199 248 272 250 186 268 291 302 282 304
332 331 284 300 318 95 98 107 121 118 147 147 137 138 146 165 187 190 177 170 216 182 174 175 168 184 205 177 186 180 224 218 216 144 177 165 182 216 229 211 224 234 237 193 228 258 267 263 261
130 338 342 338 82 98 95 94 99 114 130 135 138 147 163 181 188 213 198 183 195 184 188 174 173 182 197 178 194 201 220 214 208 177 169 177 198 215 211 222 199 211 200 203 204 221 243 258 238
266 133 312 322 325 97 110 122 109 129 136 141 151 163 178 194 198 192 206 204 188 192 188 165 182 163 172 147 170 177 173 175 152 153 171 192 207 207 206 202 204 201 206 206 199 205 216 239 231
284 80 337 321 313 35 88 91 121 140 142 150 171 177 193 212 212 202 199 209 190 189 170 176 177 169 173 172 182 157 170 141 185 145 159 197 205 184 193 225 209 211 200 192 189 216 225 242 240
130 75 295 295 317 346 58 159 143 150 149 164 185 193 199 218 226 226 219 204 169 169 174 180 177 176 164 201 194 177 122 114 173 189 166 206 237 193 164 211 219 198 185 176 181 191 234 244 231
164 110 226 330 331 305 13 145 168 158 163 169 185 202 206 230 239 228 216 187 165 168 174 181 184 171 189 213 232 206 167 194 162 213 215 190 196 101 171 192 180 140 155 183 174 206 211 240 262
323 204 68 48 331 347 356 202 168 168 173 175 191 202 213 219 231 226 225 172 169 171 177 175 188 179 188 199 238 314 51 197 189 230 227 220 232 232 182 166 150 140 140 162 169 204 234 238 242
171 159 11 343 312 344 316 139 174 183 191 188 194 201 211 221 234 224 213 188 182 179 173 184 186 187 156 173 169 216 236 205 202 224 246 227 204 218 206 152 142 144 155 178 186 180 212 268 227
157 116 67 304 295 208 53 9 300 207 204 202 191 207 208 220 225 201 180 165 171 177 184 186 184 179 188 163 196 194 220 181 184 196 228 244 218 204 183 158 163 158 157 167 185 169 163 233 196
179 181 162 186 165 29 92 321 258 279 217 215 202 206 208 205 206 216 163 177 175 182 194 181 173 172 179 171 176 213 66 44 34 181 211 236 188 173 176 169 163 164 154 173 193 178 186 221 269
294 154 160 167 136 170 343 281 271 210 223 209 209 200 202 212 204 175 175 177 184 193 184 178 176 184 197 174 177 185 170 176 212 211 192 225 153 198 210 172 162 164 174 170 200 173 187 158 252
231 154 165 155 132 127 334 354 278 76 247 210 202 202 201 202 196 190 182 184 192 181 184 189 184 187 199 185 198 189 186 184 196 166 195 226 226 238 186 196 177 166 181 174 196 195 198 167 162
157 144 135 149 149 61 262 110 287 199 227 188 205 206 222 200 211 205 187 187 192 185 186 186 187 204 193 188 204 210 199 168 182 165 188 231 283 226 207 203 185 191 184 179 194 227 213 210 200
167 37 19 4 19 221 226 71 238 221 247 183 147 124 54 34 31 149 157 198 189 186 190 190 187 203 204 190 192 210 214 178 190 182 207 186 208 216 221 201 189 180 191 198 186 204 209 197 204
197 156 143 139 309 272 329 257 272 327 320 144 155 177 137 36 318 71 47 347 233 190 189 192 191 203 197 201 200 202 208 193 199 189 206 210 208 212 193 203 196 218 204 196 207 192 203 199 222
184 99 133 102 354 360 339 300 307 12 57 105 173 172 181 180 165 84 291 280 250 211 194 191 188 202 205 207 193 196 204 203 209 205 195 217 221 227 198 201 213 220 237 223 195 200 210 204 216
150 157 101 33 138 223 291 273 233 316 115 157 169 200 207 197 170 179 243 269 229 213 207 194 192 194 201 205 200 192 203 205 210 204 205 218 219 234 199 217 231 234 238 231 207 212 222 217 238
352 204 68 116 147 147 167 263 204 219 205 187 194 196 213 203 217 238 233 65 338 34 204 201 192 196 195 199 203 193 204 209 204 212 202 201 208 214 222 203 223 242 242 238 219 222 226 221 235
182 199 141 140 218 147 118 273 234 173 223 165 188 192 207 214 235 245 303 359 294 292 206 199 212 197 202 200 192 202 206 200 197 210 217 206 212 213 221 213 212 232 230 229 219 231 232 231 251